Flag for Germany Weather past 2 weeks in Würzburg, Bavaria, Germany

Now
45 °F

Rain. Overcast.


Feels Like: 41 °F
Forecast: 28 / 38 °F
Wind: 8 mph from West

Location: Wuerzburg

Current Time: Dec 25, 2014 at 1:56:31 AM

Latest Report: Dec 25, 2014 at 1:00 AM


Visibility: 3 mi

Pressure: 30.10 "Hg

Humidity: 95%

Dew point: 44 °F

Location of WürzburgLocation

Historic Weather in Würzburg — Graph

°F

Würzburg temperature yesterday

Maximum temperature yesterday: 48 °F (at 3:00 PM)
Minimum temperature yesterday: 35 °F (at 5:00 AM)
Average temperature yesterday: 42 °F

Past Weeks' High & Low Weather Summary

 TemperatureHumidityPressure
High55 °F (Dec 18, 10:00 PM)100% (Dec 10, 12:00 AM)30.50 "Hg (Dec 10, 12:00 AM)
Low31 °F (Dec 10, 4:00 AM)56% (Dec 15, 2:00 PM)29.65 "Hg (Dec 12, 7:00 PM)
Average43 °F87%30.06 "Hg
* Reported Midnight between Dec 9 and Dec 10 — Midnight between Dec 24 and Dec 25, Würzburg, Weather by CustomWeather, © 2014

Note: Actual official high and low records may vary slightly from our data, if they occured in-between our weather recording intervals... More about our weather records

Advertising

Würzburg weather history for previous 24 hours

 ConditionsComfort  
Time TempWeatherWind HumidityBarometerVisibility
12:00 AM
Dec 25
46 °FDrizzle. Overcast.10 mph92%30.10 "Hg11 mi
11:00 PM
Dec 24
45 °FOvercast.10 mph91%30.10 "Hg14 mi
10:00 PM45 °FOvercast.10 mph90%30.11 "Hg10 mi
9:00 PM46 °FLight rain. Overcast.13 mph86%30.10 "Hg22 mi
8:00 PM46 °FLight rain. Overcast.9 mph86%30.10 "Hg9 mi
7:00 PM46 °FLight rain. Overcast.9 mph83%30.10 "Hg9 mi
6:00 PM46 °FLight rain. Overcast.10 mph81%30.09 "Hg19 mi
5:00 PM46 °FOvercast.13 mph78%30.08 "Hg25 mi
4:00 PM46 °FOvercast.8 mph77%30.09 "Hg28 mi
3:00 PM48 °FPartly sunny.9 mph71%30.09 "Hg34 mi
2:00 PM47 °FOvercast.9 mph73%30.10 "Hg34 mi
1:00 PM47 °FPartly sunny.10 mph72%30.11 "Hg25 mi
12:00 PM45 °FOvercast.10 mph75%30.14 "Hg25 mi
11:00 AM43 °FOvercast.8 mph79%30.15 "Hg22 mi
10:00 AM42 °FOvercast.7 mph82%30.16 "Hg22 mi
9:00 AM40 °FOvercast.6 mph86%30.17 "Hg22 mi
8:00 AM38 °FOvercast.6 mph90%30.17 "Hg19 mi
7:00 AM38 °FOvercast.5 mph89%30.17 "Hg11 mi
6:00 AM36 °FOvercast.6 mph93%30.18 "Hg9 mi
5:00 AM35 °FPassing clouds.5 mph97%30.16 "Hg8 mi
4:00 AM35 °FPassing clouds.3 mph97%30.17 "Hg9 mi
3:00 AM35 °FPassing clouds.3 mph97%30.18 "Hg8 mi
2:00 AM36 °FPassing clouds.5 mph97%30.18 "Hg7 mi
1:00 AM38 °FPassing clouds.5 mph94%30.19 "Hg11 mi
Weather by CustomWeather, © 2014

See weather overviewHow to use our weather pages